Total_Precipitation_Accumulation
0.02 0.03 0.16 0.18 0.14 0.10 0.10 0.12 0.09 0.08 0.07 0.05 0.07 0.08 0.10 0.04 0.06 0.05 0.04 0.03 0.03 0.04 0.04 0.04 0.04 0.05 0.05 0.03 0.02 0.02 0.08 0.05 0.06 0.06 0.07 0.13 0.11 0.09 0.09 0.11 0.11 0.10 0.26
0.00 0.00 0.09 0.10 0.08 0.07 0.08 0.08 0.07 0.08 0.07 0.05 0.05 0.07 0.07 0.08 0.06 0.06 0.05 0.04 0.03 0.04 0.07 0.06 0.05 0.04 0.05 0.05 0.03 0.03 0.09 0.06 0.05 0.05 0.04 0.07 0.08 0.10 0.11 0.11 0.11 0.21 0.35
0.00 0.00 0.01 0.03 0.04 0.05 0.04 0.07 0.09 0.10 0.08 0.07 0.04 0.06 0.06 0.07 0.08 0.07 0.06 0.06 0.06 0.05 0.05 0.07 0.07 0.04 0.04 0.04 0.03 0.05 0.07 0.03 0.03 0.03 0.01 0.00 0.02 0.09 0.12 0.11 0.08 0.17 0.20
0.00 0.00 0.00 0.01 0.01 0.02 0.02 0.03 0.04 0.06 0.07 0.05 0.03 0.03 0.04 0.07 0.10 0.13 0.12 0.09 0.07 0.05 0.04 0.03 0.05 0.05 0.03 0.04 0.03 0.05 0.05 0.04 0.04 0.01 0.00 0.03 0.02 0.07 0.13 0.10 0.09 0.13 0.15
0.00 0.00 0.00 0.00 0.00 0.00 0.01 0.01 0.03 0.05 0.05 0.03 0.02 0.03 0.05 0.08 0.12 0.15 0.14 0.13 0.14 0.11 0.05 0.04 0.06 0.08 0.07 0.05 0.04 0.04 0.05 0.07 0.06 0.01 0.00 0.01 0.03 0.05 0.16 0.15 0.10 0.31 0.43
0.00 0.00 0.00 0.00 0.00 0.00 0.00 0.00 0.01 0.02 0.02 0.01 0.02 0.03 0.04 0.06 0.10 0.15 0.13 0.12 0.10 0.10 0.10 0.08 0.06 0.06 0.08 0.08 0.04 0.06 0.07 0.11 0.07 0.01 0.01 0.02 0.08 0.08 0.35 0.25 0.17 0.36 0.44
0.00 0.00 0.00 0.00 0.00 0.00 0.00 0.00 0.00 0.00 0.00 0.00 0.00 0.00 0.01 0.01 0.02 0.08 0.11 0.12 0.10 0.10 0.14 0.14 0.12 0.09 0.10 0.09 0.05 0.07 0.10 0.13 0.08 0.01 0.01 0.01 0.06 0.33 0.40 0.41 0.31 0.34 0.29
0.00 0.00 0.00 0.00 0.00 0.00 0.00 0.00 0.00 0.00 0.00 0.00 0.00 0.00 0.00 0.01 0.01 0.03 0.07 0.08 0.04 0.10 0.13 0.12 0.11 0.12 0.12 0.09 0.11 0.12 0.11 0.11 0.08 0.02 0.00 0.00 0.04 0.34 0.57 0.59 0.47 0.24 0.25
0.00 0.00 0.00 0.00 0.00 0.00 0.00 0.00 0.00 0.00 0.00 0.00 0.00 0.00 0.00 0.00 0.00 0.00 0.00 0.01 0.01 0.04 0.10 0.13 0.11 0.15 0.10 0.07 0.08 0.10 0.12 0.15 0.11 0.02 0.01 0.00 0.01 0.14 0.47 0.60 0.59 0.35 0.24
0.00 0.00 0.00 0.00 0.00 0.00 0.00 0.00 0.00 0.00 0.00 0.00 0.00 0.00 0.00 0.00 0.00 0.00 0.00 0.00 0.00 0.01 0.04 0.07 0.09 0.12 0.12 0.08 0.06 0.09 0.14 0.17 0.04 0.04 0.01 0.00 0.02 0.06 0.18 0.32 0.44 0.51 0.40
0.00 0.00 0.00 0.00 0.00 0.00 0.00 0.00 0.00 0.00 0.00 0.00 0.00 0.00 0.00 0.00 0.00 0.00 0.00 0.00 0.00 0.00 0.01 0.05 0.05 0.05 0.10 0.05 0.07 0.13 0.11 0.05 0.07 0.05 0.02 0.01 0.07 0.14 0.16 0.16 0.26 0.38 0.45
0.00 0.00 0.00 0.00 0.00 0.00 0.00 0.00 0.00 0.00 0.00 0.00 0.00 0.00 0.00 0.00 0.00 0.00 0.00 0.00 0.00 0.01 0.01 0.00 0.03 0.06 0.10 0.09 0.09 0.12 0.09 0.10 0.16 0.12 0.05 0.03 0.09 0.18 0.23 0.25 0.21 0.25 0.40
0.00 0.00 0.00 0.00 0.00 0.00 0.00 0.00 0.00 0.00 0.00 0.00 0.00 0.00 0.00 0.00 0.00 0.00 0.00 0.00 0.00 0.00 0.00 0.02 0.05 0.06 0.10 0.14 0.14 0.17 0.17 0.23 0.16 0.21 0.14 0.06 0.10 0.16 0.24 0.30 0.31 0.28 0.31
0.00 0.00 0.00 0.00 0.00 0.00 0.00 0.00 0.00 0.00 0.00 0.00 0.00 0.00 0.00 0.00 0.00 0.00 0.00 0.00 0.00 0.00 0.00 0.01 0.04 0.07 0.09 0.13 0.19 0.23 0.27 0.31 0.25 0.20 0.17 0.12 0.12 0.15 0.28 0.35 0.43 0.43 0.42
0.00 0.00 0.00 0.00 0.00 0.00 0.00 0.00 0.00 0.00 0.00 0.00 0.00 0.00 0.00 0.00 0.00 0.00 0.00 0.00 0.00 0.00 0.00 0.00 0.00 0.03 0.16 0.20 0.36 0.55 0.40 0.44 0.45 0.47 0.43 0.37 0.30 0.22 0.26 0.35 0.54 0.70 0.54
0.00 0.00 0.00 0.00 0.00 0.00 0.00 0.00 0.00 0.00 0.00 0.00 0.00 0.00 0.00 0.00 0.00 0.00 0.00 0.00 0.00 0.00 0.00 0.00 0.00 0.00 0.02 0.10 0.22 0.66 1.11 0.91 0.95 1.02 0.92 0.72 0.59 0.55 0.44 0.40 0.46 0.74 1.14
0.00 0.00 0.00 0.00 0.00 0.00 0.00 0.00 0.00 0.00 0.00 0.00 0.00 0.00 0.00 0.00 0.00 0.00 0.00 0.00 0.00 0.00 0.00 0.00 0.00 0.00 0.00 0.01 0.01 0.14 0.65 0.96 0.85 0.85 1.17 1.45 1.52 1.32 0.94 0.75 0.56 0.74 1.05
0.00 0.00 0.00 0.00 0.00 0.00 0.00 0.00 0.00 0.00 0.00 0.00 0.00 0.00 0.00 0.00 0.00 0.00 0.00 0.00 0.00 0.00 0.00 0.00 0.00 0.00 0.00 0.00 0.00 0.00 0.04 0.21 0.65 0.78 0.78 0.88 1.14 1.61 1.96 1.87 1.67 1.34 1.22
0.00 0.00 0.00 0.00 0.00 0.00 0.00 0.00 0.00 0.00 0.00 0.00 0.00 0.00 0.00 0.00 0.00 0.00 0.00 0.00 0.00 0.00 0.00 0.00 0.00 0.00 0.00 0.00 0.00 0.00 0.00 0.00 0.04 0.15 0.25 0.38 0.55 0.71 0.93 1.09 1.28 1.36 1.38
0.00 0.00 0.00 0.00 0.00 0.00 0.00 0.00 0.00 0.00 0.00 0.00 0.00 0.00 0.00 0.00 0.00 0.00 0.00 0.00 0.00 0.00 0.00 0.00 0.00 0.00 0.00 0.00 0.00 0.00 0.00 0.00 0.00 0.01 0.07 0.11 0.18 0.33 0.42 0.42 0.52 0.66 0.76
0.00 0.00 0.00 0.00 0.00 0.00 0.00 0.00 0.00 0.00 0.00 0.00 0.00 0.00 0.00 0.00 0.00 0.00 0.00 0.00 0.00 0.00 0.00 0.00 0.00 0.00 0.00 0.00 0.00 0.00 0.00 0.00 0.00 0.00 0.00 0.04 0.09 0.16 0.23 0.19 0.17 0.22 0.37
0.00 0.00 0.00 0.00 0.00 0.00 0.00 0.00 0.00 0.00 0.00 0.00 0.00 0.00 0.00 0.00 0.00 0.00 0.00 0.00 0.00 0.00 0.00 0.00 0.00 0.00 0.00 0.00 0.01 0.01 0.00 0.00 0.00 0.00 0.00 0.02 0.05 0.14 0.19 0.25 0.23 0.16 0.15
0.00 0.00 0.00 0.00 0.00 0.00 0.00 0.00 0.00 0.00 0.00 0.00 0.00 0.00 0.00 0.00 0.00 0.00 0.00 0.00 0.00 0.00 0.00 0.00 0.00 0.00 0.00 0.00 0.01 0.03 0.04 0.03 0.01 0.00 0.01 0.02 0.03 0.08 0.19 0.34 0.36 0.37 0.25
0.00 0.00 0.00 0.00 0.00 0.00 0.00 0.00 0.00 0.00 0.00 0.00 0.00 0.00 0.00 0.00 0.00 0.00 0.00 0.00 0.00 0.00 0.00 0.00 0.00 0.00 0.00 0.00 0.00 0.01 0.03 0.06 0.09 0.07 0.01 0.01 0.01 0.05 0.10 0.22 0.45 0.47 0.52
0.00 0.00 0.00 0.00 0.00 0.00 0.00 0.00 0.00 0.00 0.00 0.00 0.00 0.00 0.00 0.00 0.00 0.00 0.00 0.00 0.00 0.00 0.00 0.00 0.00 0.00 0.00 0.00 0.00 0.00 0.01 0.00 0.03 0.11 0.09 0.02 0.00 0.01 0.08 0.11 0.17 0.26 0.27
0.00 0.00 0.00 0.00 0.00 0.00 0.00 0.00 0.00 0.00 0.00 0.00 0.00 0.00 0.00 0.00 0.00 0.00 0.00 0.00 0.00 0.00 0.00 0.00 0.00 0.00 0.00 0.00 0.00 0.00 0.02 0.04 0.04 0.07 0.12 0.04 0.02 0.00 0.02 0.05 0.08 0.11 0.21